Content
SEND FEEDBACK

Daily
Averages
Monthly
Summary
Greece

ATHENS, GREECE


Home > Europe > Greece
Elevation: 69 feet     Latitude: 37 54N     Longitude: 023 44E

WEATHER
 
SELECT A DAY
Number of Records: 81,986;   Date Range: 4/14/01 - 10/29/14
 
SHARE

PRINT THIS DATA

[ ← Previous Day ]
WEATHER ALMANAC - JANUARY 6, 2013
[ Next Day → ]
[ °C ]   °F
Weather ElementAverageHighLow
Temperature45.4 °F51.8 °F (6:20 am)39.2 °F (12:50 am)
Dewpoint35 °F39.2 °F (10:20 am)28.4 °F (11:50 pm)
Humidity67.6 %81 % (12:50 am)54 % (6:20 am)
Barometer29.82 in29.92 in (6:50 pm)29.74 in (2:50 am)
Wind Speed12.1 mph25.3 mph (5:20 pm)
Wind Gust28.8 mph (8:50 am)
Weather ElementAverage
Visibility6.2 mi
Wind DirectionWSW (237.9 °)

Weather ElementTotal
Precipitation---
Heating Degree Days19.5 (Base 65)
Averaged from 47 records on January 6, 2013
WEATHER CONDITIONS BREAKOUT
WIND DIRECTION BREAKOUT
WEATHER BY HOUR - JANUARY 6, 2013
[ °C ]   °F
Local TimeTemperatureDewpointHumidityBarometerVisibilityWind DirectionWind SpeedGust SpeedPrecipitationEventsConditions
12:50 AM39.2 °F33.8 °F81 %29.77 in6.2 miVariable2.3 mphScattered Clouds
1:20 AM42.8 °F37.4 °F81 %29.77 in6.2 miVariable2.3 mphScattered Clouds
1:50 AM44.6 °F37.4 °F76 %29.77 in6.2 miWNW (290°)3.5 mphMostly Cloudy
2:20 AM48.2 °F37.4 °F66 %29.77 in6.2 miVariable2.3 mphMostly Cloudy
2:50 AM48.2 °F37.4 °F66 %29.74 in6.2 miVariable1.2 mphMostly Cloudy
3:20 AM48.2 °F37.4 °F66 %29.74 in6.2 miNorth (350°)1.2 mphMostly Cloudy
3:50 AM48.2 °F37.4 °F66 %29.74 in6.2 miVariable2.3 mphMostly Cloudy
4:20 AM50.0 °F35.6 °F58 %29.74 in6.2 miNNW (330°)6.9 mphMostly Cloudy
4:50 AM50.0 °F35.6 °F58 %29.74 in6.2 miNNW (340°)5.8 mphMostly Cloudy
5:20 AM50.0 °F35.6 °F58 %29.74 in6.2 miNNW (330°)9.2 mphMostly Cloudy
5:50 AM50.0 °F35.6 °F58 %29.74 in6.2 miNorth (350°)6.9 mphMostly Cloudy
6:20 AM51.8 °F35.6 °F54 %29.74 in6.2 miNorth (360°)13.8 mphMostly Cloudy
6:50 AM50.0 °F33.8 °F54 %29.74 in6.2 miNNW (340°)16.1 mphMostly Cloudy
7:20 AM46.4 °F33.8 °F62 %29.74 in6.2 miNW (310°)17.3 mphScattered Clouds
7:50 AM46.4 °F33.8 °F62 %29.74 in6.2 miNW (310°)18.4 mphMostly Cloudy
8:20 AM48.2 °F33.8 °F58 %29.77 in6.2 miNW (310°)19.6 mphMostly Cloudy
8:50 AM48.2 °F33.8 °F58 %29.77 in6.2 miNW (320°)17.3 mph28.8 mphMostly Cloudy
9:20 AM48.2 °F33.8 °F58 %29.80 in6.2 miNW (320°)15.0 mphMostly Cloudy
9:50 AM44.6 °F37.4 °F76 %29.83 in6.2 miNNW (340°)11.5 mphRainLight Rain
10:20 AM44.6 °F39.2 °F81 %29.83 in4.3 miNorth (360°)13.8 mphRainRain
10:50 AM44.6 °F37.4 °F76 %29.83 in6.2 miNorth (360°)16.1 mphRainLight Rain
11:20 AM44.6 °F37.4 °F76 %29.83 in6.2 miNorth (360°)18.4 mphRainLight Rain
11:50 AM44.6 °F35.6 °F71 %29.83 in6.2 miNorth (350°)17.3 mphMostly Cloudy
12:20 PM44.6 °F35.6 °F71 %29.83 in6.2 miNorth (350°)18.4 mphMostly Cloudy
12:50 PM46.4 °F37.4 °F71 %29.83 in6.2 miNorth (350°)17.3 mphMostly Cloudy
1:20 PM48.2 °F35.6 °F62 %29.83 in6.2 miNNW (340°)15.0 mph28.8 mphMostly Cloudy
1:50 PM48.2 °F35.6 °F62 %29.80 in6.2 miNorth (350°)19.6 mphMostly Cloudy
2:20 PM46.4 °F35.6 °F66 %29.83 in6.2 miNorth (350°)17.3 mphMostly Cloudy
2:50 PM48.2 °F33.8 °F58 %29.80 in6.2 miNNW (330°)16.1 mphScattered Clouds
3:20 PM46.4 °F33.8 °F62 %29.83 in6.2 miNorth (350°)17.3 mphScattered Clouds
3:50 PM48.2 °F35.6 °F62 %29.83 in6.2 miNorth (350°)15.0 mphScattered Clouds
4:20 PM44.6 °F37.4 °F76 %29.86 in6.2 miNNE (30°)21.9 mphMostly Cloudy
4:50 PM44.6 °F37.4 °F76 %29.86 in6.2 miNorth (10°)16.1 mphScattered Clouds
5:20 PM42.8 °F37.4 °F81 %29.89 in6.2 miNNE (20°)25.3 mphRainLight Rain
5:50 PM41.0 °F35.6 °F81 %29.89 in6.2 miNNE (20°)19.6 mphScattered Clouds
6:20 PM41.0 °F35.6 °F81 %29.89 in6.2 miNorth (10°)16.1 mphScattered Clouds
6:50 PM42.8 °F33.8 °F70 %29.92 in6.2 miNorth (360°)18.4 mphScattered Clouds
7:20 PM41.0 °F33.8 °F76 %29.89 in6.2 miNorth (360°)15.0 mphScattered Clouds
7:50 PM41.0 °F33.8 °F76 %29.92 in6.2 miNorth (350°)10.4 mphScattered Clouds
8:20 PM41.0 °F33.8 °F76 %29.92 in6.2 miNorth (10°)10.4 mphScattered Clouds
8:50 PM42.8 °F33.8 °F70 %29.92 in6.2 miNorth (360°)10.4 mphScattered Clouds
9:20 PM41.0 °F32.0 °F70 %29.92 in6.2 miNE (50°)5.8 mphScattered Clouds
9:50 PM42.8 °F32.0 °F66 %29.92 in6.2 miNorth (350°)8.1 mphMostly Cloudy
10:20 PM41.0 °F30.2 °F65 %29.92 in6.2 miSouth (180°)5.8 mphMostly Cloudy
10:50 PM42.8 °F30.2 °F61 %29.92 in6.2 miWest (270°)5.8 mphMostly Cloudy
11:20 PM42.8 °F30.2 °F61 %29.92 in6.2 miVariable3.5 mphPartly Cloudy
11:50 PM42.8 °F28.4 °F57 %29.92 in6.2 miVariable3.5 mphPartly Cloudy
Hourly data recorded from LGAV, located miles away from Athens, Greece







STORIES FROM OUR PARTNERS